www.pogodaiklimat.ru

Погода и климат >> Архив погоды >> Дания >> Скаген


ПОГОДА в Скагене

  • Прогноз погоды в Скагене
  • Монитор погоды в Скагене

АРХИВ ПОГОДЫ в Скагене

Время (UTC), дата Ветер
(напр.,м/с)
 
Видим.   Явления Облачность Т
(С)
Тd
(С)
f
(%)
Тe
(С)
Тes
(С)
Комфортность P
(гПа)
Po
(гПа)
Тmin
(С)
Tmax
(С)
R
(мм)
R24
(мм)
S
(см)
19 18.08 ЮЗ 4 16 км слаб. дождь {морось} 10/0 2000 м
[]
+13.8 +11.7 87 +12 +12 1001.8 1001.3 1
20 18.08 ЮЗ 4 40 км в посл. час дождь 6/6 420 м
[]
+14.5 +12.9 90 +13 +13 1001.8 1001.2 0.1
21 18.08 ЮЗ 5 30 км {дождь, морось} ясно +13.3 +12.2 93 +11 +11 1001.9 1001.4 1
22 18.08 ЮЗ 5 26 км ясно +12.1 +11.5 96 +10 +10 1002.3 1001.7
23 18.08 ЮЗ 6 17 км ясно +12.9 +12.1 95 +10 +10 1002.9 1002.3
00 19.08 ЮЗ 7 16 км {дождь, морось} 4/4 800 м
[]
+13.9 +12.4 91 +11 +11 1003.4 1002.8
01 19.08 ЮЗ 7 16 км 4/4 1500 м
[]
+14.1 +12.5 90 +12 +12 1003.5 1002.9
02 19.08 ЮЗ 6 13 км ясно +13.5 +12.3 92 +11 +11 1003.6 1003.0
03 19.08 ЮЗ 7 13 км ясно +13.8 +12.3 91 +11 +11 1004.0 1003.4
04 19.08 ЮЗ 7 18 км ясно +14.1 +12.4 89 +12 +12 1004.5 1003.9
05 19.08 ЮЗ 7 16 км ясно +14.3 +12.2 87 +12 +12 1004.6 1004.0
06 19.08 ЮЗ 10 17 км 9/9 1500 м
[]
+15.0 +12.6 86 +13 +13 1004.9 1004.3 +11.6 +15.0
07 19.08 ЮЗ 9 17 км 1/0
[]
+15.5 +12.9 84 +13 +14 1005.1 1004.6
08 19.08 ЮЗ 9 30 км 9/9 1500 м
[]
+15.3 +11.2 77 +13 +13 1005.4 1004.8
09 19.08 ЮЗ 8 23 км 1/0
[]
+16.1 +11.9 76 +15 +16 1005.9 1005.3
10 19.08 Ю 8 19 км 4/4 930 м
[]
+17.1 +13.4 79 +16 +17 1006.2 1005.6
11 19.08 З 6 8000 м ливневой дождь 9/9 400 м
[]
+13.2 +11.7 91 +11 +11 1006.8 1006.2 7
12 19.08 ЮЗ 3
{16}
15 км слаб. ливневой дождь 9/9 800 м
[]
+15.2 +13.7 91 +14 +15 1007.5 1007.0 8
13 19.08 ЮЗ 5 19 км {ливн. осадки} 9/9 700 м
[]
+16.6 +13.5 82 +16 +16 1008.0 1007.4
14 19.08 З 6 17 км в посл. час дождь {ливн. осадки} 6/6 1000 м
[]
+17.3 +13.0 76 +16 +18 1008.5 1008.0
15 19.08 Ю 6 18 км {ливн. осадки} 6/6 600 м
[]
+17.1 +13.4 79 +16 +17 1009.1 1008.5 0.0
16 19.08 З 8 20 км ясно +17.9 +12.3 70 +17 +18 1009.3 1008.8
17 19.08 З 7 30 км ясно +17.1 +11.4 69 +16 +16 1009.8 1009.3
18 19.08 ЮЗ 7
{11}
12 км слаб. ливневой дождь 6/6 750 м
[]
+15.2 +11.1 77 +13 +13 1010.2 1009.6 +12.8 +18.4 0.0
19 19.08 ЮЗ 5 17 км слаб. ливневой дождь 9/9 870 м
[]
+15.6 +13.6 88 +14 +14 1010.6 1010.0 0.2
20 19.08 ЮЗ 6 18 км в посл. час дождь {ливн. осадки} 1/1 870 м
[]
+15.9 +13.4 85 +14 +14 1011.0 1010.4 0.1
21 19.08 ЮЗ 7 16 км {ливн. осадки} ясно +15.4 +13.2 87 +14 +14 1011.2 1010.7 0.3
22 19.08 ЮЗ 8 16 км ясно +15.1 +13.0 87 +13 +13 1011.6 1011.0
23 19.08 ЮЗ 7 17 км 1/1 360 м
[]
+14.8 +12.9 88 +13 +13 1011.8 1011.2
00 20.08 ЮЗ 8 20 км {ливн. осадки} 1/1 870 м
[]
+14.5 +12.8 90 +12 +12 1012.2 1011.6
01 20.08 ЮЗ 8 15 км ясно +14.0 +12.7 92 +11 +11 1012.5 1011.9
02 20.08 ЮЗ 6 13 км в посл. час дождь {ливн. осадки, морось} 6/6 700 м
[]
+13.6 +12.3 92 +11 +11 1013.0 1012.4
03 20.08 ЮЗ 7 15 км {ливн. осадки, морось} 1/0
[]
+13.9 +12.6 92 +12 +12 1013.2 1012.6 0.0
04 20.08 ЮЗ 6 14 км 4/4 1230 м
[]
+13.7 +12.3 91 +11 +11 1013.7 1013.1
05 20.08 ЮЗ 6 16 км 4/0
[]
+14.2 +12.3 88 +12 +12 1014.1 1013.5
06 20.08 ЮЗ 6 16 км {ливн. осадки, морось} ясно +14.4 +12.4 88 +12 +13 1014.4 1013.8 +13.1 +15.9
07 20.08 ЮЗ 6 17 км ясно +15.0 +12.5 85 +13 +15 1015.0 1014.4
08 20.08 ЮЗ 6 25 км 1/0 2000 м
[]
+16.6 +12.9 79 +16 +18 1015.4 1014.9
09 20.08 З 6
{14}
35 км в посл. час дождь {ливн. осадки} 1/1 1500 м
[]
+16.4 +12.0 75 +15 +18 1015.7 1015.1 2
10 20.08 ЮЗ 6 40 км 6/6 1050 м
[]
+17.0 +10.5 66 +16 +17 1016.0 1015.4
11 20.08 ЮЗ 6 28 км 4/4 1020 м
[]
+17.7 +10.5 63 +17 +20 1016.1 1015.6
12 20.08 ЮЗ 4
{14}
30 км {ливн. осадки, дождь} 9/9 1000 м
[]
+17.5 +11.0 66 +17 +18 1016.5 1015.9
13 20.08 З 9 30 км 6/6 1110 м
[]
+18.6 +9.1 54 +18 +19 1016.7 1016.1
14 20.08 З 9 30 км 1/0
[]
+18.4 +10.8 61 +18 +19 1016.9 1016.4
15 20.08 З 8 26 км ясно +17.8 +11.3 66 +17 +18 1017.1 1016.5
16 20.08 З 8 30 км ясно +17.5 +11.8 69 +16 +17 1017.7 1017.1
17 20.08 З 7 30 км ясно +17.0 +11.9 72 +16 +16 1018.0 1017.4
18 20.08 З 6 40 км ясно +16.2 +10.8 70 +15 +15 1018.4 1017.9 +14.4 +19.0
19 20.08 ЮЗ 4 28 км ясно +14.9 +11.5 80 +14 +14 1018.7 1018.2
20 20.08 ЮЗ 6 18 км слаб. ливневой дождь 4/4 1500 м
[]
+14.5 +11.5 82 +13 +13 1019.1 1018.5
21 20.08 ЮЗ 7 29 км {ливн. осадки, дождь} 1/1 1000 м
[]
+14.8 +11.7 82 +13 +13 1019.4 1018.9 0.0
22 20.08 ЮЗ 8 28 км 9/9 600 м
[]
+14.6 +12.1 85 +12 +12 1019.6 1019.0
23 20.08 ЮЗ 5 40 км в посл. час морось {ливн. осадки, дождь} 1/0 2000 м
[]
+12.9 +11.4 91 +11 +11 1019.5 1018.9 0.1
00 21.08 ЮЗ 5 40 км {ливн. осадки, дождь} 6/6 660 м
[]
+12.8 +11.7 93 +11 +11 1019.7 1019.1 0.1
01 21.08 ЮЗ 5 35 км 1/1 870 м
[]
+12.4 +11.4 94 +10 +10 1020.0 1019.4
02 21.08 З 4 35 км 6/6 700 м
[]
+12.6 +10.9 89 +11 +11 1020.3 1019.7
03 21.08 З 4 45 км 9/9 800 м
[]
+13.0 +9.9 81 +11 +11 1020.6 1020.0
04 21.08 З 6 45 км 9/9 840 м
[]
+13.7 +9.0 73 +12 +12 1020.8 1020.2
05 21.08 ЮЗ 5 45 км 9/9 960 м
[]
+13.4 +9.8 79 +11 +11 1021.2 1020.6
06 21.08 З 8 45 км 1/1 800 м
[]
+14.6 +9.3 70 +12 +13 1021.5 1020.9 +11.9 +16.1
07 21.08 З 9 40 км 1/1 800 м
[]
+15.1 +9.1 67 +13 +13 1021.8 1021.2
08 21.08 З 9 40 км 1/1 840 м
[]
+16.2 +8.4 60 +15 +15 1022.0 1021.5
09 21.08 З 8 30 км 1/1 800 м
[]
+16.5 +10.2 66 +15 +16 1022.6 1022.0
10 21.08 З 9 35 км 1/1 870 м
[]
+16.9 +9.7 63 +15 +16 1022.8 1022.2
11 21.08 З 9 30 км ясно +17.0 +8.6 58 +16 +16 1023.2 1022.7
12 21.08 З 10 30 км 1/1 870 м
[]
+16.8 +8.4 58 +15 +15 1023.6 1023.1
13 21.08 З 9 30 км 4/4 930 м
[]
+16.8 +8.5 58 +15 +16 1023.6 1023.0
14 21.08 З 9 35 км 6/6 930 м
[]
+15.7 +9.1 65 +14 +14 1023.9 1023.3
15 21.08 З 9
{14}
40 км 6/6 900 м
[]
+16.5 +9.0 61 +15 +15 1024.0 1023.4
16 21.08 З 9 40 км 4/4 1000 м
[]
+15.8 +8.5 62 +14 +14 1024.2 1023.6
17 21.08 З 9 40 км 1/1 900 м
[]
+15.3 +8.5 64 +13 +13 1024.2 1023.7
18 21.08 З 8
{14}
35 км ясно +15.1 +9.2 68 +13 +13 1024.2 1023.6 +14.5 +17.5
19 21.08 З 6 40 км ясно +14.4 +9.8 74 +13 +13 1024.3 1023.7
20 21.08 З 5 45 км 1/1 660 м
[]
+13.5 +10.3 81 +12 +12 1024.7 1024.1
21 21.08 ЮЗ 5 40 км ясно +14.1 +11.5 84 +12 +12 1024.8 1024.2
22 21.08 ЮЗ 7 40 км 1/1 800 м
[]
+14.2 +11.2 82 +12 +12 1024.8 1024.2
23 21.08 ЮЗ 6 40 км ясно +14.2 +11.4 83 +12 +12 1024.7 1024.1
00 22.08 ЮЗ 6 40 км ясно +14.6 +12.0 84 +13 +13 1024.6 1024.0
01 22.08 ЮЗ 6 35 км 6/0 2000 м
[]
+14.3 +12.0 86 +12 +12 1024.5 1023.9
02 22.08 ЮЗ 6 35 км 10/10 1200 м
[]
+14.7 +12.0 84 +13 +13 1024.3 1023.7
03 22.08 ЮЗ 7 30 км 6/6 1320 м
[]
+14.8 +11.8 82 +13 +13 1023.9 1023.3
04 22.08 ЮЗ 8 26 км 1/0 2000 м
[]
+14.7 +11.7 82 +13 +13 1023.5 1022.9
05 22.08 ЮЗ 9 24 км ясно +14.5 +11.9 84 +12 +12 1023.5 1022.9
06 22.08 ЮЗ 8 21 км 1/1 800 м
[]
+14.6 +11.9 84 +12 +13 1023.4 1022.8 +13.1 +15.1
07 22.08 ЮЗ 9 21 км ясно +15.5 +12.4 82 +13 +14 1023.3 1022.7
08 22.08 Ю 8 20 км 4/0
[]
+16.3 +12.9 80 +15 +15 1023.1 1022.5
09 22.08 Ю 10 18 км 4/0
[]
+16.2 +13.5 84 +14 +15 1023.0 1022.4
10 22.08 Ю 11 13 км 9/0
[]
+16.2 +13.3 83 +14 +14 1022.6 1022.0
11 22.08 Ю 11 12 км 9/0
[]
+16.5 +13.3 81 +15 +15 1022.1 1021.5
12 22.08 Ю 11 10 км морось {дождь} 9/9 1500 м
[]
+16.8 +13.9 83 +15 +15 1021.8 1021.3 0.0
13 22.08 Ю 11 10 км слаб. ливневой дождь 9/9 870 м
[]
+16.8 +14.0 84 +15 +15 1021.3 1020.7 0.1
14 22.08 Ю 10 8000 м слаб. ливневой дождь 9/9 1410 м
[]
+16.8 +13.9 83 +15 +15 1020.6 1020.0 0.1
15 22.08 З 5 7000 м дождь {ливн. осадки} 9/9 660 м
[]
+15.0 +13.7 92 +14 +14 1021.3 1020.7 3
16 22.08 ЮЗ 6 8000 м слаб. дождь 9/9 1140 м
[]
+15.4 +13.8 90 +14 +14 1020.8 1020.2 2
17 22.08 ЮЗ 8 18 км в посл. час дождь 9/9 1500 м
[]
+15.6 +12.4 81 +14 +14 1020.6 1020.0 0.1
18 22.08 ЮЗ 6 18 км {ливн. осадки, дождь} 1/0
[]
+15.0 +13.0 88 +13 +13 1020.6 1020.0 +14.5 +17.1 2
19 22.08 ЮЗ 6 12 км слаб. морось {дождь} 4/4 1500 м
[]
+14.9 +13.2 90 +13 +13 1020.9 1020.4
20 22.08 ЮЗ 5 19 км в посл. час морось {ливн. осадки} 1/0 2000 м
[]
+14.2 +12.7 91 +12 +12 1021.0 1020.5
21 22.08 ЮЗ 6 16 км {ливн. осадки, дождь} 9/0 2000 м
[]
+15.0 +13.4 90 +13 +13 1021.0 1020.4 0.0
22 22.08 ЮЗ 6 19 км 9/9 1500 м
[]
+15.3 +13.6 90 +14 +14 1020.8 1020.2
23 22.08 ЮЗ 7 18 км 1/1 1230 м
[]
+15.6 +13.5 87 +14 +14 1020.4 1019.8
00 23.08 ЮЗ 7 19 км {ливн. осадки, дождь} 9/9 930 м
[]
+15.2 +13.6 90 +13 +13 1020.1 1019.5
01 23.08 ЮЗ 9 13 км 9/9 270 м
[]
+15.3 +14.0 92 +13 +13 1019.6 1019.1
02 23.08 ЮЗ 9 11 км 9/9 270 м
[]
+15.6 +14.5 93 +14 +14 1019.2 1018.6
03 23.08 ЮЗ 9 8000 м дымка 9/9 300 м
[]
+15.7 +14.7 94 +14 +14 1018.7 1018.1
04 23.08 ЮЗ 9 11 км в посл. час морось {ливн. осадки, дождь} 9/9 240 м
[]
+15.9 +14.9 94 +14 +14 1018.7 1018.1
05 23.08 ЮЗ 9 11 км слаб. ливневой дождь {морось} 9/9 300 м
[]
+16.3 +15.0 92 +15 +15 1018.6 1018.0
06 23.08 ЮЗ 9 10 км {ливн. осадки, дождь} 9/9 270 м
[]
+16.7 +15.2 91 +15 +15 1018.7 1018.1 +14.1 +16.7 0.0
07 23.08 ЮЗ 8 4500 м дымка 10/10 240 м
[]
+16.5 +15.6 94 +15 +15 1018.9 1018.3
08 23.08 ЮЗ 8 14 км 9/9 240 м
[]
+17.3 +15.8 91 +16 +16 1019.2 1018.7
09 23.08 З 9
{13}
16 км в посл. час морось {ливн. осадки, дождь} 9/9 210 м
[]
+17.6 +16.2 91 +16 +17 1019.6 1019.0 0.0
10 23.08 З 10 21 км 9/9 330 м
[]
+18.8 +15.5 81 +19 +19 1019.8 1019.2
11 23.08 З 12 24 км 10/10 600 м
[]
+18.3 +14.8 80 +17 +17 1020.5 1019.9
12 23.08 З 12-18
{19}
28 км {ливн. осадки, дождь} 6/6 420 м
[]
+19.1 +14.4 74 +19 +19 1020.8 1020.2
13 23.08 З 10 23 км 1/1 720 м
[]
+19.2 +14.6 75 +20 +20 1021.3 1020.7
14 23.08 З 12 15 км 1/1 360 м
[]
+18.7 +15.0 79 +18 +18 1021.4 1020.9
15 23.08 З 11 17 км 1/1 360 м
[]
+18.6 +14.9 79 +18 +18 1022.0 1021.5
16 23.08 З 9 16 км 1/1 400 м
[]
+18.1 +14.8 81 +17 +17 1022.2 1021.6
17 23.08 З 9 15 км 4/4 300 м
[]
+17.6 +14.9 84 +16 +17 1022.4 1021.9
18 23.08 З 7 14 км 1/1 330 м
[]
+16.8 +14.7 87 +16 +16 1022.5 1021.9 +16.3 +19.7
19 23.08 З 4 13 км 4/4 360 м
[]
+16.5 +14.8 90 +16 +16 1023.2 1022.6
20 23.08 ЮЗ 5 12 км 4/4 330 м
[]
+16.3 +14.8 91 +15 +15 1023.5 1022.9
21 23.08 ЮЗ 3 13 км 9/9 330 м
[]
+15.8 +14.6 93 +15 +15 1023.7 1023.1
22 23.08 З 6 17 км 1/1 480 м
[]
+15.8 +14.1 90 +14 +14 1023.7 1023.1
23 23.08 З 6 16 км 9/9 450 м
[]
+16.2 +14.1 87 +15 +15 1023.7 1023.1
00 24.08 З 6 17 км ясно +15.7 +13.9 89 +14 +14 1023.7 1023.1
01 24.08 З 6 18 км 1/1 420 м
[]
+15.6 +13.7 88 +14 +14 1024.1 1023.6
02 24.08 З 7 18 км 4/4 360 м
[]
+15.7 +13.6 87 +14 +14 1024.6 1024.0
03 24.08 З 5 15 км 1/1 300 м
[]
+15.6 +14.3 92 +14 +14 1024.5 1023.9
04 24.08 З 4 14 км 6/6 270 м
[]
+15.6 +14.5 93 +15 +15 1024.9 1024.3
05 24.08 З 4 18 км 9/9 300 м
[]
+16.1 +14.8 92 +15 +15 1025.4 1024.8
06 24.08 З 5 19 км 1/1 300 м
[]
+16.9 +14.8 87 +16 +17 1025.4 1024.8 +15.0 +17.0
07 24.08 З 7 25 км ясно +17.8 +14.8 83 +17 +18 1025.6 1025.0
08 24.08 З 6 23 км 1/1 300 м
[]
+18.1 +15.2 83 +18 +20 1025.9 1025.4
09 24.08 З 6 30 км 1/1 330 м
[]
+18.7 +14.9 79 +19 +22 1026.4 1025.8
10 24.08 З 5 21 км 1/1 210 м
[]
+18.6 +15.7 83 +19 +23 1026.4 1025.9
11 24.08 З 5 30 км ясно +18.7 +15.7 83 +19 +24 1026.6 1026.0
12 24.08 Ю 5 15 км 1/1 400 м
[]
+18.5 +15.8 84 +19 +24 1026.6 1026.1
13 24.08 Ю 5 2600 м дымка 10/10 30 м
[]
+16.8 +15.5 92 +16 +16 1026.7 1026.1
14 24.08 Ю 5 17 км 1/1 30 м
[]
+17.8 +15.7 88 +17 +20 1026.7 1026.1
15 24.08 Ю 4 13 км {дымка} 9/9 60 м
[]
+17.1 +15.7 91 +17 +17 1026.6 1026.0
16 24.08 Ю 4 18 км 1/1 60 м
[]
+18.0 +16.0 88 +18 +19 1026.2 1025.6
17 24.08 Ю 4 17 км ясно +17.7 +16.0 90 +17 +18 1025.9 1025.3
18 24.08 Ю 3 20 км {дымка} ясно +17.1 +15.7 91 +17 +17 1025.7 1025.1 +16.7 +19.7
19 24.08 Ю 3 17 км ясно +16.9 +16.1 95 +17 +17 1025.9 1025.3
20 24.08 Ю 4 15 км ясно +17.1 +16.3 95 +17 +17 1025.9 1025.3
21 24.08 Ю 3 13 км ясно +16.9 +16.2 96 +17 +17 1025.6 1025.0
22 24.08 Ю 3 10 км ясно +16.6 +16.2 97 +16 +16 1025.5 1024.9
23 24.08 ЮВ 2 9000 м дымка ясно +16.4 +16.2 99 +17 +17 1025.4 1024.9
00 25.08 ЮВ 2 8000 м дымка ясно +16.1 +15.9 99 +16 +16 1025.5 1024.9
01 25.08 ЮВ 2 11 км ясно +16.3 +16.1 99 +16 +16 1025.5 1024.9
02 25.08 ЮВ 2 9000 м дымка ясно +16.4 +16.1 98 +16 +16 1025.3 1024.7
03 25.08 В 2 9000 м дымка ясно +16.2 +16.0 99 +16 +16 1025.0 1024.4
04 25.08 В 2 7000 м дымка ясно +16.1 +15.9 99 +16 +16 1024.7 1024.1
05 25.08 В 2 7000 м дымка ясно +16.3 +16.0 98 +17 +17 1024.8 1024.2
06 25.08 В 2 9000 м дымка ясно +16.7 +16.0 96 +17 +18 1024.7 1024.1 +16.0 +17.2
07 25.08 ЮВ 3 14 км ясно +17.2 +16.0 93 +17 +20 1025.0 1024.4
08 25.08 ЮВ 3 22 км ясно +17.8 +16.3 91 +18 +23 1025.1 1024.5
09 25.08 ЮВ 2 20 км {дымка} ясно +18.4 +16.7 90 +20 +27 1025.1 1024.6
10 25.08 ЮВ 3 16 км ясно +19.6 +17.4 87 +22 +30 комфорт 1024.9 1024.4
11 25.08 ЮВ 4 19 км ясно +19.8 +17.4 86 +23 +30 комфорт 1024.7 1024.1
12 25.08 ЮВ 3 17 км {дымка} ясно +19.5 +17.2 87 +22 +30 комфорт 1024.6 1024.0
13 25.08 ЮВ 4 22 км ясно +21.0 +17.6 81 +25 +32 комфорт 1024.6 1024.0
14 25.08 Ю 3 26 км ясно +20.5 +17.5 83 +24 +30 комфорт 1024.4 1023.9
15 25.08 Ю 3 30 км ясно +19.9 +17.1 84 +23 +27 комфорт 1024.3 1023.7
16 25.08 Ю 2 28 км 1/0
[]
+19.8 +17.4 86 +23 +25 комфорт 1024.2 1023.6
17 25.08 Ю 3 30 км ясно +18.8 +17.3 91 +20 +21 1023.8 1023.3
18 25.08 Ю 3 22 км ясно +18.4 +17.3 93 +19 +19 1023.8 1023.2 +16.7 +21.1

 

Местоположение метеостанции Скаген (Дания): широта 57.73 долгота 10.63 высота над уровнем моря 5 м.

В архиве по умолчанию представлена погода в Скагене за последнюю неделю. Архивные данные за месяц целиком и за предыдущие месяцы, начиная с января 2011 года, Вы можете получить, выбрав интересующий диапазон дат из раскрывающегося списка и нажав кнопку "Ввод!".


*Определитесь, кто Вы:
робот инопланетянин человек

Внимание! Время в таблицах - всемирное. Для получения местного времени необходимо прибавить поправку, которая равна 1 ч.

Смотрите также архив погоды в соседних городах и на ближайших метеорологических станциях:

Погода в Стенхое (Дания) (43 км)
Погода на Маяке Maseskar (Швеция) (58 км)
Погода в Винге (Швеция) (60 км)
Погода в Тылструпе (Дания) (73 км)
Погода в Гетеборге (Швеция) (81 км)
Погода в Ольборге (Дания) (84 км)
Погода на Маяке Nidingen (Швеция) (90 км)
Погода на Вадероарна (Швеция) (98 км)
Погода в Гетеборг-Ландветтере (Швеция) (99 км)
Погода в Торпаброне (Швеция) (103 км)

Пояснения к столбцам:

Ветер - указаны скорость ветра в м/с - средняя за 10 мин, порывы в срок и между сроками (в фигурных скобках) и направление, откуда дует ветер: С - северный, СВ - северо-восточный, В - восточный, ЮВ - юго-восточный, Ю - южный, ЮЗ - юго-западный, З - западный, СЗ - северо-западный.
Видимость - горизонтальная дальность видимости в метрах или километрах. При видимости от 1 до 10 км при отсутствии осадков обычно наблюдается дымка, при ухудшении видимости до 1 км и менее - туман. В сухую погоду видимость может ухудшаться дымом, пылью или мглою.
Явления - указаны атмосферные явления, наблюдавшиеся в срок или в последний час перед сроком; фигурными скобками обозначены явления, наблюдавшиеся между сроками (за 1-3 часа до срока); квадратными скобками обозначены град или гололедные отложения с указанием их диаметра в мм.
Облачность - указаны через наклонную черту общая и нижняя облачность в баллах и высота нижней границы облаков в метрах; квадратными скобками обозначены формы облаков: Ci - перистые, Cs - перисто-слоистые, Cc - перисто-кучевые, Ac - высококучевые, As - высокослоистые, Sc - слоисто-кучевые, Ns - слоисто-дождевые, Cu - кучевые, Cb - кучево-дождевые. Подробнее классификацию облаков см. в Атласе облаков (PDF).
T - Температура воздуха - температура, измеренная на высоте 2 м над землей.
Td - Температура точки росы - температура, при понижении до которой содержащийся в воздухе водяной пар достигнет насыщения.
f - Относительная влажность воздуха - влажноcть воздуха, измеренная на высоте 2 м над землей.
Te - Эффективная температура - температура, которую ощущает одетый по сезону человек в тени. Характеристика душности погоды. При расчете учитывается влияние влажности воздуха и скорости ветра на теплоощущения человека.
Tes - Эффективная температура на солнце - температура, которую ощущает человек, с поправкой на солнечный нагрев. Характеристика знойности погоды. Зависит от высоты солнца над горизонтом, облачности и скорости ветра. Ночью, в пасмурную погоду, а также при ветре 12 м/с и более поправка равна нулю.
P - Атмосферное давление - приведенное к уровню моря атмосферное давление.
Po - Атмосферное давление - измеренное на уровне метеостанции атмосферное давление.
Tmin - Минимальная температура - минимум температуры воздуха на высоте 2 м над землей.
Tmax - Максимальная температура - максимум температуры воздуха на высоте 2 м над землей.
R - Количество осадков - Количество выпавших осадков за период времени, мм. При наведении курсора мыши на число - период времени, за который выпало указанное количество осадков.
R24 - Количество осадков - Количество выпавших осадков за 24 часа, мм.
S - Снежный покров - Высота снежного покрова, см. При наведении курсора мыши на число - состояние снежного покрова и степень покрытия местности в баллах.